#timestamp,LO_Frequency,Hit,StdDev 
1505631615.9,286046997.5,N
1505631635.7,286046993.8,N
1505631655.6,286046995.6,N
1505631675.4,286046996.3,N
1505631695.2,286046996.1,N
1505631715.0,286046994.4,N
1505631716.0,286046994.4,N
1505631735.8,286046996.4,N
1505631755.6,286046993.4,Y
1505631775.5,286046997.7,P
1505631795.3,286046995.4,P
1505631815.1,286046995.8,P
1505631835.9,286046995.0,Y
1505631855.7,286046999.0,P
1505631875.5,286046999.4,N
1505631895.4,286047000.4,N
1505631915.2,286046998.8,N
1505631935.0,286047001.0,N
1505631935.9,286047001.0,N
1505631955.7,286047003.6,N
1505631975.6,286047000.4,N
1505631995.4,286046999.9,N
1505632015.2,286047001.1,N
1505632035.1,286046998.3,N
1505632036.0,286046998.3,N
1505632055.8,286046999.9,N
1505632075.6,286047000.4,N
1505632095.5,286046998.2,N
1505632115.3,286046998.3,N
1505632135.1,286046997.0,N
1505632155.9,286046998.4,N
1505632175.7,286046996.6,N
1505632195.5,286046997.4,N
1505632215.4,286046996.5,N
1505632235.2,286046994.9,N
1505632255.0,286046999.5,N
1505632255.9,286046999.5,N
1505632275.8,286046997.5,N
1505632295.6,286046998.8,N
1505632315.4,286047001.0,N
1505632335.2,286046999.9,N
1505632355.1,286047003.8,N
1505632356.0,286047003.8,N
1505632375.8,286047003.4,N
1505632395.6,286047004.4,N
1505632415.5,286046998.5,N
1505632435.3,286047000.7,N
1505632455.1,286046997.3,N
1505632475.9,286046995.1,N
1505632495.7,286046998.0,N
1505632515.5,286046998.4,N
1505632535.4,286046995.1,N
1505632555.2,286046991.9,Y
1505632575.0,286046995.1,P
1505632575.9,286046995.1,N
1505632595.8,286046994.1,P
1505632615.6,286046994.4,N
1505632635.4,286046995.9,N
1505632655.3,286046995.4,N
1505632675.1,286047000.9,N
1505632676.0,286047000.9,N
1505632695.8,286046998.5,N
1505632715.7,286046997.0,N
1505632735.5,286047000.8,N
1505632755.3,286047002.4,N
1505632775.1,286046999.3,N
1505632795.9,286047002.4,N
1505632815.7,286046995.3,N
1505632835.5,286046999.3,N
1505632855.4,286047002.6,N
1505632875.2,286047000.4,N
1505632895.0,286047000.7,N
1505632895.9,286047000.7,N
1505632915.8,286046999.4,N
1505632935.6,286046999.3,N
1505632955.4,286046993.7,N
1505632975.3,286046993.3,N
1505632995.1,286046996.3,N
1505632996.0,286046996.3,N
1505633015.8,286046997.3,N
1505633035.7,286046992.0,N
1505633055.5,286046995.0,N
1505633075.3,286047000.6,N
1505633095.1,286047004.2,N
1505633115.9,286047004.0,N
1505633135.7,286047000.5,N
1505633155.5,286046995.8,N
1505633175.4,286046997.6,N
1505633195.2,286046996.5,N
1505633215.0,286046999.4,N
1505633215.9,286046999.4,N
1505633235.8,286046999.3,N
1505633255.6,286046996.1,N
1505633275.4,286046996.9,N
1505633295.3,286047000.8,N
1505633315.1,286047000.7,N
1505633316.0,286047000.7,N
1505633335.8,286046996.9,N
1505633355.7,286046994.9,N
1505633375.5,286046997.9,N
1505633395.3,286046995.1,N
1505633415.1,286046999.6,N
1505633435.9,286047001.0,N
1505633455.7,286046997.5,N
1505633475.5,286046997.8,N
1505633495.4,286046993.5,N
1505633515.2,286046993.3,N
1505633535.0,286046994.7,N
1505633535.9,286046994.7,N
1505633555.8,286046991.8,N
1505633575.6,286046992.5,N
1505633595.4,286046990.2,Y
1505633615.3,286046992.0,P
1505633635.1,286046993.3,N
1505633655.8,286046992.4,P
1505633675.7,286046999.4,N
1505633695.5,286046996.5,N
1505633715.3,286046999.9,N
1505633735.2,286046999.0,N
1505633755.9,286046999.8,N
1505633775.7,286046998.9,N
1505633795.6,286046995.4,N
1505633815.4,286046994.6,N
1505633835.2,286046994.9,N
1505633855.0,286046997.4,N
1505633855.9,286046997.4,N
1505633875.8,286046994.9,N
1505633895.6,286046993.3,N
1505633915.4,286046998.3,N
1505633935.3,286046997.2,N
1505633955.1,286046999.0,N
1505633975.8,286046997.1,N
1505633995.7,286047001.1,N
1505634015.5,286046997.0,N
1505634035.3,286046998.9,N
1505634055.2,286046998.0,N
1505634075.9,286046996.9,N
1505634095.7,286046999.2,N
1505634115.6,286046997.3,N
1505634135.4,286046997.6,N
1505634155.2,286046995.1,N
1505634175.1,286046993.1,Y
1505634176.0,286046993.1,P
1505634195.8,286046994.0,P
1505634215.6,286046996.1,N
1505634235.5,286046993.3,Y
1505634255.3,286046999.0,P
1505634275.1,286047002.2,N
1505634295.9,286047000.8,N
1505634315.7,286046999.8,N
1505634335.5,286047000.0,N
1505634355.4,286046999.7,N
1505634375.2,286047001.1,N
1505634395.0,286047002.7,N
1505634395.9,286047002.7,N
1505634415.7,286046996.5,N
1505634435.6,286046998.8,N
1505634455.4,286046997.0,N
1505634475.2,286046996.6,N
1505634495.1,286046995.6,N
1505634496.0,286046995.6,N
1505634515.8,286046994.0,N
1505634535.6,286046993.5,N
1505634555.5,286046994.8,N
1505634575.3,286046992.2,N
1505634595.1,286046995.1,N
1505634615.9,286047000.6,N
1505634635.7,286047002.3,N
1505634655.5,286046997.0,N
1505634675.4,286046997.2,N
1505634695.2,286046995.1,N
1505634715.0,286046998.7,N
1505634715.9,286046998.7,N
1505634735.7,286046999.6,N
1505634755.6,286046996.3,N
1505634775.4,286046993.4,N
1505634795.2,286046994.8,N
1505634815.1,286046993.1,N
1505634816.0,286046993.1,N
1505634835.8,286046988.5,Y
1505634855.6,286046995.6,P
1505634875.5,286046995.7,P
1505634895.3,286046995.0,P
1505634915.1,286047002.1,N
1505634935.9,286047000.1,N
1505634955.7,286047001.9,N
1505634975.5,286046998.6,N
1505634995.4,286047000.5,N
1505635015.2,286047001.2,N
1505635035.0,286046997.8,N
1505635035.9,286046997.8,N
1505635055.8,286046997.1,N
1505635075.6,286046997.4,N
1505635095.4,286046993.4,N
1505635115.3,286046994.3,N
1505635135.1,286046991.8,Y
1505635136.0,286046991.8,P
1505635155.8,286046990.5,P
1505635175.7,286046990.3,P
1505635195.5,286046993.0,N
